| time (UTC) | temp F | wind direction | speed MPH | gust MPH | rain 1hr in | rain 24hr in | rain mn in | humidity % | barometer mb |
| 20260505034311 | 58 | 210 | 4.0 | 9.0 | 0.00 | 0.00 | 0.00 | 58 | 1010.3 |
| 20260505033808 | 58 | 153 | 1.0 | 2.0 | 0.00 | 0.00 | 0.00 | 58 | 1010.3 |
| 20260505033305 | 58 | 205 | 2.0 | 3.0 | 0.00 | 0.00 | 0.00 | 57 | 1010.2 |
| 20260505032803 | 58 | 351 | 2.0 | 3.0 | 0.00 | 0.00 | 0.00 | 57 | 1010.0 |
| 20260505032259 | 58 | 193 | 1.0 | 2.0 | 0.00 | 0.00 | 0.00 | 57 | 1010.0 |
| 20260505031756 | 59 | 338 | 0.0 | 2.0 | 0.00 | 0.00 | 0.00 | 56 | 1010.1 |
| 20260505031252 | 59 | 191 | 1.0 | 6.0 | 0.00 | 0.00 | 0.00 | 56 | 1010.1 |
| 20260505030750 | 59 | 182 | 2.0 | 2.0 | 0.00 | 0.00 | 0.00 | 56 | 1010.3 |
| 20260505030246 | 59 | 197 | 1.0 | 6.0 | 0.00 | 0.00 | 0.00 | 55 | 1010.2 |
| 20260505025741 | 59 | 171 | 1.0 | 13.0 | 0.00 | 0.00 | 0.00 | 54 | 1010.2 |
| 20260505025240 | 59 | 164 | 1.0 | 4.0 | 0.00 | 0.00 | 0.00 | 54 | 1010.4 |
| 20260505024738 | 59 | 162 | 0.0 | 1.0 | 0.00 | 0.00 | 0.00 | 54 | 1010.1 |
| 20260505024235 | 60 | 271 | 1.0 | 6.0 | 0.00 | 0.00 | 0.00 | 54 | 1010.2 |
| 20260505023732 | 60 | 192 | 1.0 | 4.0 | 0.00 | 0.00 | 0.00 | 54 | 1010.1 |
| 20260505023229 | 60 | 234 | 4.0 | 4.0 | 0.00 | 0.00 | 0.00 | 54 | 1010.4 |
| 20260505022727 | 60 | 217 | 6.0 | 10.0 | 0.00 | 0.00 | 0.00 | 54 | 1010.1 |
| 20260505022223 | 60 | 34 | 1.0 | 3.0 | 0.00 | 0.00 | 0.00 | 53 | 1010.3 |
| 20260505021720 | 60 | 173 | 1.0 | 2.0 | 0.00 | 0.00 | 0.00 | 53 | 1010.4 |
| 20260505021217 | 60 | 157 | 6.0 | 7.0 | 0.00 | 0.00 | 0.00 | 51 | 1010.2 |
| 20260505020713 | 61 | 184 | 2.0 | 6.0 | 0.00 | 0.00 | 0.00 | 51 | 1010.2 |
| 20260505020208 | 61 | 183 | 2.0 | 3.0 | 0.00 | 0.00 | 0.00 | 52 | 1010.2 |
| 20260505015706 | 61 | 158 | 2.0 | 3.0 | 0.00 | 0.00 | 0.00 | 51 | 1010.1 |
| 20260505015202 | 61 | 306 | 0.0 | 4.0 | 0.00 | 0.00 | 0.00 | 50 | 1010.1 |
| 20260505014659 | 62 | 152 | 0.0 | 2.0 | 0.00 | 0.00 | 0.00 | 50 | 1010.1 |
| 20260505014157 | 62 | 198 | 10.0 | 13.0 | 0.00 | 0.00 | 0.00 | 50 | 1010.0 |
| 20260505013654 | 62 | 200 | 4.0 | 9.0 | 0.00 | 0.00 | 0.00 | 50 | 1009.9 |
| 20260505013151 | 62 | 182 | 3.0 | 11.0 | 0.00 | 0.00 | 0.00 | 49 | 1009.8 |
| 20260505012649 | 62 | 240 | 3.0 | 8.0 | 0.00 | 0.00 | 0.00 | 49 | 1009.8 |
| 20260505012146 | 62 | 135 | 2.0 | 6.0 | 0.00 | 0.00 | 0.00 | 49 | 1009.7 |
| 20260505011641 | 62 | 162 | 3.0 | 4.0 | 0.00 | 0.00 | 0.00 | 48 | 1009.6 |
| 20260505011139 | 63 | 161 | 3.0 | 14.0 | 0.00 | 0.00 | 0.00 | 48 | 1009.4 |
| 20260505010634 | 63 | 185 | 8.0 | 13.0 | 0.00 | 0.00 | 0.00 | 47 | 1009.4 |
| 20260505010131 | 63 | 166 | 5.0 | 6.0 | 0.00 | 0.00 | 0.00 | 48 | 1009.2 |
| 20260505005627 | 63 | 38 | 2.0 | 2.0 | 0.00 | 0.00 | 0.00 | 48 | 1009.3 |
| 20260505005124 | 64 | 211 | 8.0 | 9.0 | 0.00 | 0.00 | 0.00 | 47 | 1008.9 |
| 20260505004622 | 64 | 172 | 0.0 | 7.0 | 0.00 | 0.00 | 0.00 | 47 | 1008.7 |
| 20260505004118 | 64 | 164 | 2.0 | 7.0 | 0.00 | 0.00 | 0.00 | 47 | 1008.7 |
| 20260505003615 | 64 | 235 | 2.0 | 10.0 | 0.00 | 0.00 | 0.00 | 46 | 1008.6 |
| 20260505003112 | 64 | 192 | 1.0 | 8.0 | 0.00 | 0.00 | 0.00 | 46 | 1008.4 |
| 20260505002608 | 65 | 134 | 1.0 | 4.0 | 0.00 | 0.00 | 0.00 | 45 | 1008.2 |
| 20260505002102 | 65 | 317 | 4.0 | 6.0 | 0.00 | 0.00 | 0.00 | 44 | 1008.3 |
| 20260505001558 | 65 | 37 | 1.0 | 4.0 | 0.00 | 0.00 | 0.00 | 44 | 1007.9 |
| 20260505001056 | 65 | 204 | 1.0 | 8.0 | 0.00 | 0.00 | 0.00 | 43 | 1007.9 |
| 20260505000552 | 66 | 241 | 1.0 | 3.0 | 0.00 | 0.00 | 0.00 | 43 | 1007.8 |
| 20260505000050 | 66 | 171 | 9.0 | 13.0 | 0.00 | 0.00 | 0.00 | 42 | 1007.6 |
| 20260504235547 | 66 | 230 | 4.0 | 8.0 | 0.00 | 0.00 | 0.00 | 42 | 1007.5 |
| 20260504235043 | 67 | 202 | 9.0 | 11.0 | 0.00 | 0.00 | 0.00 | 41 | 1007.5 |
| 20260504234540 | 67 | 167 | 6.0 | 11.0 | 0.00 | 0.00 | 0.00 | 40 | 1007.5 |
| 20260504234037 | 68 | 175 | 1.0 | 6.0 | 0.00 | 0.00 | 0.00 | 38 | 1007.2 |
| 20260504233533 | 68 | 174 | 6.0 | 9.0 | 0.00 | 0.00 | 0.00 | 37 | 1007.0 |
| 20260504233030 | 69 | 121 | 0.0 | 0.0 | 0.00 | 0.00 | 0.00 | 36 | 1006.9 |
| 20260504232527 | 69 | 152 | 0.0 | 1.0 | 0.00 | 0.00 | 0.00 | 35 | 1006.7 |
| 20260504232025 | 69 | 157 | 0.0 | 4.0 | 0.00 | 0.00 | 0.00 | 34 | 1006.7 |
| 20260504231521 | 70 | 56 | 1.0 | 1.0 | 0.00 | 0.00 | 0.00 | 34 | 1006.7 |
| 20260504231017 | 70 | 214 | 0.0 | 1.0 | 0.00 | 0.00 | 0.00 | 33 | 1006.7 |
| 20260504230513 | 70 | 182 | 1.0 | 1.0 | 0.00 | 0.00 | 0.00 | 34 | 1006.6 |
| 20260504230013 | 70 | 174 | 0.0 | 3.0 | 0.00 | 0.00 | 0.00 | 33 | 1006.3 |
| 20260504225509 | 70 | 233 | 2.0 | 15.0 | 0.00 | 0.00 | 0.00 | 33 | 1006.4 |
| 20260504225006 | 71 | 197 | 1.0 | 1.0 | 0.00 | 0.00 | 0.00 | 33 | 1006.5 |
| 20260504224503 | 71 | 225 | 0.0 | 2.0 | 0.00 | 0.00 | 0.00 | 32 | 1006.6 |
| 20260504224000 | 71 | 259 | 1.0 | 2.0 | 0.00 | 0.00 | 0.00 | 32 | 1006.3 |
| 20260504223456 | 71 | 229 | 1.0 | 2.0 | 0.00 | 0.00 | 0.00 | 32 | 1006.2 |
| 20260504222951 | 71 | 209 | 7.0 | 10.0 | 0.00 | 0.00 | 0.00 | 31 | 1006.4 |
| 20260504222449 | 71 | 66 | 1.0 | 3.0 | 0.00 | 0.00 | 0.00 | 32 | 1006.2 |
| 20260504221947 | 71 | 228 | 7.0 | 8.0 | 0.00 | 0.00 | 0.00 | 32 | 1006.2 |
| 20260504221444 | 71 | 194 | 1.0 | 6.0 | 0.00 | 0.00 | 0.00 | 31 | 1006.2 |
| 20260504220941 | 71 | 202 | 0.0 | 4.0 | 0.00 | 0.00 | 0.00 | 31 | 1006.4 |
| 20260504220437 | 72 | 198 | 11.0 | 11.0 | 0.00 | 0.00 | 0.00 | 30 | 1006.3 |
| 20260504215934 | 72 | 293 | 3.0 | 7.0 | 0.00 | 0.00 | 0.00 | 30 | 1006.5 |
| 20260504215431 | 72 | 287 | 2.0 | 3.0 | 0.00 | 0.00 | 0.00 | 30 | 1006.2 |
| 20260504214928 | 72 | 198 | 2.0 | 6.0 | 0.00 | 0.00 | 0.00 | 31 | 1006.2 |
| 20260504214424 | 72 | 289 | 2.0 | 7.0 | 0.00 | 0.00 | 0.00 | 30 | 1006.3 |
| 20260504213921 | 72 | 302 | 2.0 | 7.0 | 0.00 | 0.00 | 0.00 | 30 | 1006.1 |
| 20260504213417 | 71 | 331 | 1.0 | 10.0 | 0.00 | 0.00 | 0.00 | 31 | 1006.3 |
| 20260504212915 | 72 | 223 | 4.0 | 6.0 | 0.00 | 0.00 | 0.00 | 30 | 1006.3 |
| 20260504212410 | 72 | 238 | 1.0 | 4.0 | 0.00 | 0.00 | 0.00 | 30 | 1006.3 |
| 20260504211908 | 72 | 206 | 3.0 | 3.0 | 0.00 | 0.00 | 0.00 | 30 | 1006.0 |
| 20260504211404 | 73 | 212 | 6.0 | 8.0 | 0.00 | 0.00 | 0.00 | 30 | 1006.3 |
| 20260504210901 | 73 | 124 | 1.0 | 2.0 | 0.00 | 0.00 | 0.00 | 30 | 1006.3 |
| 20260504210358 | 72 | 185 | 2.0 | 7.0 | 0.00 | 0.00 | 0.00 | 30 | 1006.2 |
| 20260504205855 | 73 | 197 | 6.0 | 11.0 | 0.00 | 0.00 | 0.00 | 30 | 1006.2 |
| 20260504205353 | 73 | 308 | 6.0 | 9.0 | 0.00 | 0.00 | 0.00 | 29 | 1006.2 |
| 20260504204851 | 72 | 189 | 0.0 | 8.0 | 0.00 | 0.00 | 0.00 | 30 | 1006.1 |
| 20260504204349 | 73 | 224 | 1.0 | 3.0 | 0.00 | 0.00 | 0.00 | 30 | 1006.3 |
| 20260504203849 | 72 | 213 | 2.0 | 8.0 | 0.00 | 0.00 | 0.00 | 30 | 1006.0 |
| 20260504203345 | 72 | 208 | 6.0 | 8.0 | 0.00 | 0.00 | 0.00 | 30 | 1006.3 |
| 20260504202840 | 72 | 134 | 9.0 | 14.0 | 0.00 | 0.00 | 0.00 | 29 | 1006.3 |
| 20260504202338 | 72 | 15 | 6.0 | 8.0 | 0.00 | 0.00 | 0.00 | 29 | 1006.5 |
| 20260504201834 | 72 | 257 | 3.0 | 15.0 | 0.00 | 0.00 | 0.00 | 29 | 1006.2 |
| 20260504201332 | 73 | 247 | 3.0 | 6.0 | 0.00 | 0.00 | 0.00 | 29 | 1006.4 |
| 20260504200829 | 73 | 198 | 11.0 | 13.0 | 0.00 | 0.00 | 0.00 | 28 | 1006.3 |
| 20260504200326 | 73 | 341 | 4.0 | 17.0 | 0.00 | 0.00 | 0.00 | 28 | 1006.4 |
| 20260504195822 | 74 | 192 | 3.0 | 4.0 | 0.00 | 0.00 | 0.00 | 27 | 1006.4 |
| 20260504195318 | 72 | 75 | 0.0 | 2.0 | 0.00 | 0.00 | 0.00 | 27 | 1006.3 |
| 20260504194815 | 73 | 23 | 2.0 | 8.0 | 0.00 | 0.00 | 0.00 | 27 | 1006.6 |
| 20260504194311 | 74 | 333 | 6.0 | 8.0 | 0.00 | 0.00 | 0.00 | 27 | 1006.4 |
| 20260504193807 | 73 | 178 | 5.0 | 7.0 | 0.00 | 0.00 | 0.00 | 28 | 1006.4 |
| 20260504193304 | 72 | 301 | 4.0 | 8.0 | 0.00 | 0.00 | 0.00 | 27 | 1006.5 |
| 20260504192803 | 73 | 201 | 1.0 | 22.0 | 0.00 | 0.00 | 0.00 | 29 | 1006.2 |
| 20260504192300 | 73 | 200 | 8.0 | 10.0 | 0.00 | 0.00 | 0.00 | 28 | 1006.2 |
| 20260504191759 | 72 | 207 | 9.0 | 15.0 | 0.00 | 0.00 | 0.00 | 28 | 1006.4 |
| 20260504191256 | 73 | 179 | 3.0 | 4.0 | 0.00 | 0.00 | 0.00 | 30 | 1006.5 |
| 20260504190751 | 72 | 150 | 2.0 | 3.0 | 0.00 | 0.00 | 0.00 | 28 | 1006.6 |
| 20260504190248 | 73 | 335 | 8.0 | 10.0 | 0.00 | 0.00 | 0.00 | 27 | 1006.7 |
| 20260504185744 | 72 | 285 | 4.0 | 6.0 | 0.00 | 0.00 | 0.00 | 29 | 1006.5 |
| 20260504185241 | 73 | 252 | 2.0 | 6.0 | 0.00 | 0.00 | 0.00 | 28 | 1006.6 |
| 20260504184737 | 73 | 278 | 4.0 | 8.0 | 0.00 | 0.00 | 0.00 | 28 | 1006.8 |
| 20260504184233 | 71 | 193 | 3.0 | 8.0 | 0.00 | 0.00 | 0.00 | 29 | 1006.8 |
| 20260504183729 | 73 | 207 | 9.0 | 23.0 | 0.00 | 0.00 | 0.00 | 29 | 1006.7 |
| 20260504183226 | 73 | 5 | 5.0 | 6.0 | 0.00 | 0.00 | 0.00 | 27 | 1006.9 |
| 20260504182724 | 73 | 28 | 2.0 | 7.0 | 0.00 | 0.00 | 0.00 | 29 | 1006.8 |
| 20260504182221 | 72 | 11 | 4.0 | 7.0 | 0.00 | 0.00 | 0.00 | 28 | 1007.0 |
| 20260504181719 | 72 | 214 | 6.0 | 9.0 | 0.00 | 0.00 | 0.00 | 29 | 1006.6 |
| 20260504181216 | 71 | 221 | 6.0 | 15.0 | 0.00 | 0.00 | 0.00 | 30 | 1006.7 |
| 20260504180715 | 72 | 188 | 4.0 | 13.0 | 0.00 | 0.00 | 0.00 | 29 | 1006.9 |
| 20260504180213 | 71 | 256 | 2.0 | 7.0 | 0.00 | 0.00 | 0.00 | 29 | 1007.0 |
| 20260504175711 | 73 | 192 | 6.0 | 16.0 | 0.00 | 0.00 | 0.00 | 30 | 1007.1 |
| 20260504175207 | 71 | 236 | 6.0 | 11.0 | 0.00 | 0.00 | 0.00 | 31 | 1007.1 |
| 20260504174705 | 70 | 280 | 6.0 | 16.0 | 0.00 | 0.00 | 0.00 | 30 | 1007.0 |
| 20260504174203 | 69 | 203 | 9.0 | 13.0 | 0.00 | 0.00 | 0.00 | 31 | 1007.1 |
| 20260504173659 | 70 | 23 | 2.0 | 15.0 | 0.00 | 0.00 | 0.00 | 31 | 1007.4 |
| 20260504173156 | 70 | 219 | 4.0 | 8.0 | 0.00 | 0.00 | 0.00 | 30 | 1007.3 |
| 20260504172653 | 69 | 308 | 3.0 | 13.0 | 0.00 | 0.00 | 0.00 | 32 | 1007.2 |
| 20260504172149 | 69 | 274 | 2.0 | 8.0 | 0.00 | 0.00 | 0.00 | 32 | 1007.2 |
| 20260504171645 | 71 | 338 | 6.0 | 11.0 | 0.00 | 0.00 | 0.00 | 31 | 1007.5 |
| 20260504171143 | 70 | 311 | 3.0 | 14.0 | 0.00 | 0.00 | 0.00 | 32 | 1007.5 |
| 20260504170639 | 71 | 318 | 3.0 | 4.0 | 0.00 | 0.00 | 0.00 | 31 | 1007.4 |
| 20260504170137 | 70 | 205 | 4.0 | 7.0 | 0.00 | 0.00 | 0.00 | 32 | 1007.4 |
| 20260504151016 | 67 | 257 | 4.0 | 6.0 | 0.00 | 0.00 | 0.00 | 34 | 1008.6 |
| 20260504150514 | 67 | 3 | 0.0 | 6.0 | 0.00 | 0.00 | 0.00 | 36 | 1008.8 |
| 20260504140940 | 64 | 247 | 4.0 | 8.0 | 0.00 | 0.00 | 0.00 | 38 | 1009.3 |
| 20260504140436 | 64 | 326 | 4.0 | 6.0 | 0.00 | 0.00 | 0.00 | 38 | 1009.2 |
| 20260504130401 | 61 | 27 | 1.0 | 2.0 | 0.00 | 0.00 | 0.00 | 42 | 1009.9 |
| 20260504120318 | 55 | 187 | 2.0 | 2.0 | 0.00 | 0.00 | 0.00 | 48 | 1010.4 |
| 20260504110242 | 48 | 148 | 0.0 | 0.0 | 0.00 | 0.00 | 0.00 | 58 | 1010.4 |
| 20260504100200 | 48 | 219 | 1.0 | 4.0 | 0.00 | 0.00 | 0.00 | 57 | 1010.3 |
| 20260504090123 | 47 | 181 | 0.0 | 0.0 | 0.00 | 0.00 | 0.00 | 57 | 1010.4 |
| 20260504081552 | 47 | 193 | 2.0 | 3.0 | 0.00 | 0.00 | 0.00 | 55 | 1010.5 |
| 20260504081048 | 47 | 210 | 1.0 | 3.0 | 0.00 | 0.00 | 0.00 | 55 | 1010.6 |
| 20260504080545 | 47 | 171 | 0.0 | 1.0 | 0.00 | 0.00 | 0.00 | 56 | 1010.3 |
| 20260504050358 | 36 | 185 | 0.0 | 0.0 | 0.00 | 0.00 | 0.00 | 86 | 1010.5 |
| 20260504045855 | 37 | 185 | 0.0 | 0.0 | 0.00 | 0.00 | 0.00 | 86 | 1010.3 |
| 20260504045350 | 37 | 185 | 0.0 | 0.0 | 0.00 | 0.00 | 0.00 | 86 | 1010.3 |
| 20260504044847 | 37 | 185 | 0.0 | 0.0 | 0.00 | 0.00 | 0.00 | 86 | 1010.3 |
| 20260504044345 | 37 | 185 | 0.0 | 0.0 | 0.00 | 0.00 | 0.00 | 87 | 1010.3 |
| 20260504043842 | 37 | 185 | 0.0 | 0.0 | 0.00 | 0.00 | 0.00 | 86 | 1010.5 |
| 20260504043339 | 37 | 185 | 0.0 | 0.0 | 0.00 | 0.00 | 0.00 | 87 | 1010.3 |
| 20260504042836 | 37 | 185 | 0.0 | 0.0 | 0.00 | 0.00 | 0.00 | 88 | 1010.4 |
| 20260504042332 | 37 | 185 | 0.0 | 0.0 | 0.00 | 0.00 | 0.00 | 88 | 1010.3 |
| 20260504041829 | 37 | 185 | 0.0 | 0.0 | 0.00 | 0.00 | 0.00 | 88 | 1010.2 |
| 20260504041324 | 37 | 185 | 0.0 | 0.0 | 0.00 | 0.00 | 0.00 | 87 | 1010.1 |
| 20260504040815 | 37 | 185 | 0.0 | 0.0 | 0.00 | 0.00 | 0.00 | 87 | 1010.0 |
| 20260504040313 | 38 | 185 | 0.0 | 0.0 | 0.00 | 0.00 | 0.00 | 87 | 1010.3 |
| 20260504035809 | 37 | 185 | 0.0 | 0.0 | 0.00 | 0.00 | 0.00 | 87 | 1010.3 |
| 20260504035306 | 37 | 185 | 0.0 | 0.0 | 0.00 | 0.00 | 0.00 | 87 | 1010.2 |
| 20260504034804 | 37 | 185 | 0.0 | 0.0 | 0.00 | 0.00 | 0.00 | 86 | 1009.9 |